Location: Newark
(50.8547°N, 2.7256°E)
Time: 06:40:08
(UTC+00:00)

Envisat - Pass Details

Date: 27 January 2020
Orbit: 764 x 766 km, 98.1° (Epoch: 27 February)

Event Time Altitude Azimuth Distance (km) Brightness Sun altitude
Rises 17:54:39 0° 179° (S) 3,222 6.4 -13.1°
Reaches altitude 10° 17:57:00 10° 184° (S) 2,300 5.7 -13.5°
Maximum altitude 18:01:57 52° 260° (W) 951 3.9 -14.2°
Drops below altitude 10° 18:06:56 10° 337° (NNW) 2,316 5.6 -15.0°
Sets 18:09:19 0° 343° (NNW) 3,247 6.3 -15.4°
